User: anonymous   Login
Location: Unspecified
(30.8073°N, 0.0000°E)
Time: 08:47:37
(UTC+00:00)
Language:

ITAMSAT 1 - Orbit

View from above orbital plane
View from above orbital plane
View from above satellite
View from above satellite

Ground track
Ground track

The orbit data is extracted from the following two-line orbital elements,

1 22826U 93061D   19233.92584418 -.00000008 +00000-0 +14811-4 0  9996
2 22826 098.9013 224.0241 0009326 154.2009 205.9639 14.30398449351084
Epoch (UTC): 21 August 2019 22:13:12
Eccentricity: 0.0009326
inclination: 98.9013°
perigee height: 784 km
apogee height: 797 km
right ascension of ascending node: 224.0241°
argument of perigee: 154.2009°
revolutions per day: 14.30398449
mean anomaly at epoch: 205.9639°
orbit number at epoch: 35108

The dashed part of the orbit path shows where the satellite is in the earth's shadow,  

DLR